Poiana Brasov, Romania 16 day weather forecast

Slopes altitude range 1030 m - 1780m

Number of lifts: 11 Pistes: 20km

In some cases the lift and piste totals shown are for the ski domain (e.g. Three Valleys) rather than individual resort (e.g. Courchevel)

Overview

The 16 day weather forecast is fully updated 4 times every day.

    • Sat 18 AUG 2018
    • Sat 18
    • 18C 26C
    • Sun 19 AUG 2018
    • Sun 19
    • 19C 27C
    • Mon 20 AUG 2018
    • Mon 20
    • 18C 22C
    • Tue 21 AUG 2018
    • Tue 21
    • 19C 27C
    • Wed 22 AUG 2018
    • Wed 22
    • 19C 24C
    • Thu 23 AUG 2018
    • Thu 23
    • 17C 19C
    • Fri 24 AUG 2018
    • Fri 24
    • 17C 21C
    • Sat 25 AUG 2018
    • Sat 25
    • 19C 24C
    • Sun 26 AUG 2018
    • Sun 26
    • 22C 30C
    • Mon 27 AUG 2018
    • Mon 27
    • 23C 30C
    • Tue 28 AUG 2018
    • Tue 28
    • 19C 30C
    • Wed 29 AUG 2018
    • Wed 29
    • 19C 29C
    • Thu 30 AUG 2018
    • Thu 30
    • 19C 28C
    • Fri 31 AUG 2018
    • Fri 31
    • 19C 29C
    • Sat 01 SEP 2018
    • Sat 01
    • 18C 29C
    • Sun 02 SEP 2018
    • Sun 02
    • 18C 28C

Date:

Time Type 0°C level Temp Chill Snow Cloud Speed Gust Dir Press
12:00 3763m 26°C 26_1 0cm 42% 1mph 2mph 1017mB
15:00 3798m 20°C 20_2 0cm 100% 2mph 3mph 1017mB
18:00 3775m 20°C 20_1 0cm 100% 1mph 2mph 1018mB
21:00 3765m 15°C 15_1 0cm 93% 1mph 2mph 1019mB
0:00 3712m 15°C 15_1 0cm 92% 1mph 2mph 1019mB
3:00 3675m 14°C 14_2 0cm 64% 2mph 2mph 1019mB
6:00 3693m 13°C 13_2 0cm 46% 2mph 2mph 1019mB
9:00 3740m 19°C 19_2 0cm 20% 2mph 2mph 1018mB
12:00 3874m 27°C 27_1 0cm 41% 1mph 2mph 1017mB
15:00 3857m 20°C 20_3 0cm 100% 3mph 4mph 1017mB
18:00 3851m 20°C 20_2 0cm 100% 2mph 3mph 1018mB
21:00 3874m 15°C 15_2 0cm 100% 2mph 3mph 1019mB
0:00 3887m 14°C 14_1 0cm 100% 1mph 2mph 1018mB
3:00 3853m 13°C 13_1 0cm 100% 1mph 2mph 1018mB
6:00 3817m 13°C 13_1 0cm 100% 1mph 3mph 1018mB
9:00 3858m 18°C 18_4 0cm 100% 4mph 6mph 1018mB
12:00 3875m 22°C 22_5 0cm 100% 5mph 7mph 1016mB
15:00 3896m 19°C 19_2 0cm 100% 2mph 3mph 1015mB
18:00 3919m 19°C 19_2 0cm 100% 2mph 3mph 1016mB
21:00 4008m 14°C 14_3 0cm 100% 3mph 4mph 1017mB
0:00 3919m 13°C 13_4 0cm 100% 4mph 5mph 1017mB
3:00 3933m 13°C 13_3 0cm 100% 3mph 3mph 1017mB
6:00 3942m 13°C 13_0 0cm 94% 0mph 1mph 1018mB
9:00 3969m 19°C 19_2 0cm 35% 2mph 2mph 1017mB
12:00 4027m 27°C 27_2 0cm 37% 2mph 2mph 1016mB
15:00 4026m 26°C 26_2 0cm 71% 2mph 2mph 1015mB
18:00 4078m 26°C 26_2 0cm 53% 2mph 2mph 1017mB
21:00 4022m 14°C 14_2 0cm 1% 2mph 3mph 1018mB
0:00 3973m 13°C 13_1 0cm 0% 1mph 2mph 1018mB
3:00 3916m 13°C 13_1 0cm 10% 1mph 2mph 1019mB
6:00 3897m 13°C 13_2 0cm 16% 2mph 2mph 1020mB
9:00 3952m 19°C 19_3 0cm 15% 3mph 4mph 1019mB
12:00 3957m 24°C 24_4 0cm 41% 4mph 5mph 1018mB
15:00 3918m 21°C 21_2 0cm 100% 2mph 2mph 1018mB
18:00 3963m 21°C 21_2 0cm 100% 2mph 2mph 1020mB
21:00 3952m 15°C 15_2 0cm 100% 2mph 3mph 1020mB
0:00 3946m 14°C 14_2 0cm 98% 2mph 2mph 1020mB
3:00 3896m 13°C 13_2 0cm 43% 2mph 2mph 1021mB
6:00 3845m 13°C 13_2 0cm 48% 2mph 3mph 1021mB
9:00 3876m 17°C 17_4 0cm 30% 4mph 6mph 1019mB
12:00 3897m 19°C 19_5 0cm 57% 5mph 9mph 1018mB
15:00 3897m 18°C 18_3 0cm 100% 3mph 4mph 1017mB
18:00 3873m 18°C 18_3 0cm 100% 3mph 4mph 1017mB
21:00 3824m 13°C 13_3 0cm 100% 3mph 4mph 1017mB
0:00 3853m 13°C 13_4 0cm 61% 4mph 5mph 1016mB
3:00 3698m 12°C 12_3 0cm 1% 3mph 4mph 1016mB
6:00 3703m 12°C 12_3 0cm 0% 3mph 5mph 1016mB
9:00 3757m 17°C 17_4 0cm 1% 4mph 5mph 1014mB
12:00 3864m 21°C 21_5 0cm 32% 5mph 7mph 1013mB
15:00 3822m 21°C 21_2 0cm 100% 2mph 3mph 1012mB
18:00 3841m 21°C 21_3 0cm 100% 3mph 3mph 1013mB
21:00 3768m 13°C 13_4 0cm 100% 4mph 5mph 1013mB
0:00 3964m 13°C 13_3 0cm 85% 3mph 4mph 1013mB
3:00 3879m 12°C 12_3 0cm 25% 3mph 4mph 1013mB
6:00 3848m 12°C 12_2 0cm 61% 2mph 3mph 1013mB
9:00 3867m 19°C 19_5 0cm 72% 5mph 7mph 1013mB
12:00 3666m 24°C 24_5 0cm 63% 5mph 6mph 1011mB
15:00 3724m 23°C 23_3 0cm 100% 3mph 4mph 1010mB
18:00 3721m 23°C 23_2 0cm 100% 2mph 3mph 1012mB
21:00 3939m 17°C 17_3 0cm 4% 3mph 4mph 1013mB
0:00 3892m 15°C 15_3 0cm 2% 3mph 3mph 1013mB
3:00 3848m 14°C 14_2 0cm 0% 2mph 2mph 1012mB
6:00 3803m 14°C 14_0 0cm 0% 0mph 1mph 1013mB
9:00 3857m 22°C 22_2 0cm 0% 2mph 3mph 1013mB
12:00 3904m 30°C 30_3 0cm 5% 3mph 4mph 1012mB
15:00 3884m 29°C 29_5 0cm 59% 5mph 7mph 1012mB
18:00 3914m 29°C 29_3 0cm 50% 3mph 4mph 1014mB
21:00 3975m 17°C 17_3 0cm 65% 3mph 4mph 1015mB
0:00 4047m 15°C 15_3 0cm 46% 3mph 3mph 1015mB
3:00 3928m 15°C 15_3 0cm 0% 3mph 3mph 1014mB
6:00 3858m 14°C 14_1 0cm 0% 1mph 2mph 1015mB
9:00 3889m 23°C 23_5 0cm 50% 5mph 7mph 1015mB
12:00 3561m 30°C 30_4 0cm 57% 4mph 4mph 1014mB
15:00 3672m 29°C 29_2 0cm 87% 2mph 2mph 1014mB
18:00 3960m 29°C 29_4 0cm 93% 4mph 5mph 1016mB
21:00 3764m 17°C 17_4 0cm 30% 4mph 5mph 1018mB
0:00 3993m 15°C 15_4 0cm 16% 4mph 5mph 1018mB
3:00 3842m 14°C 14_3 0cm 0% 3mph 4mph 1018mB
6:00 3724m 14°C 14_3 0cm 0% 3mph 3mph 1019mB
Afternoon 0mm 0 3796m 30°C 30_3 0cm 46% 3mph 4mph 1020mB
Morning 0mm 0.1875 3749m 14°C 14_4 0cm 22% 4mph 6mph 1024mB
Afternoon 0mm 0.125 3977m 29°C 29_3 0cm 18% 3mph 4mph 1022mB
Morning 0mm 2.375 3895m 15°C 15_2 0cm 21% 2mph 4mph 1024mB
Afternoon 0mm 1.25 4080m 28°C 28_2 0cm 34% 2mph 3mph 1021mB
Morning 0mm 0.1875 3937m 15°C 15_1 0cm 7% 1mph 2mph 1020mB
Afternoon 0.854167mm 0 4185m 29°C 29_3 0cm 38% 3mph 4mph 1017mB
Morning 0.09375mm 0 3965m 15°C 15_1 0cm 18% 1mph 2mph 1016mB
Afternoon 0.973958mm 0 3970m 29°C 29_1 0cm 44% 1mph 2mph 1014mB
Morning 0mm 0 3661m 15°C 15_2 0cm 48% 2mph 3mph 1013mB
Afternoon 0.401042mm 0 3761m 28°C 28_2 0cm 34% 2mph 3mph 1011mB
Morning 0.578125mm 0 3966m 14°C 14_2 0cm 0% 2mph 2mph 1014mB

16 day outlook at a glance

Forecast issued: 18/08/2018 18:53:38

Chat

Your comments and questions. In a resort? Let us know what it's like!


Characters left 250

For terms and conditions see Readers Comments on the Cookie and privacy policy page.